| time (UTC) | temp C | wind direction | speed KPH | gust KPH | rain 1hr cm | rain 24hr cm | rain mn cm | humidity % | barometer mb |
| 20260505222655 | 28 | 152 | 4.8 | 11.3 | 0.00 | 0.00 | 0.00 | 75 | 1004.9 |
| 20260505222152 | 28 | 208 | 1.6 | 16.1 | 0.00 | 0.00 | 0.00 | 75 | 1005.3 |
| 20260505221649 | 28 | 176 | 8.0 | 17.7 | 0.00 | 0.00 | 0.00 | 74 | 1005.0 |
| 20260505221145 | 28 | 156 | 6.4 | 14.5 | 0.00 | 0.00 | 0.00 | 74 | 1005.0 |
| 20260505220643 | 28 | 141 | 3.2 | 11.3 | 0.00 | 0.00 | 0.00 | 74 | 1005.1 |
| 20260505220140 | 28 | 159 | 6.4 | 16.1 | 0.00 | 0.00 | 0.00 | 74 | 1005.4 |
| 20260505215638 | 28 | 304 | 4.8 | 12.9 | 0.00 | 0.00 | 0.00 | 75 | 1005.4 |
| 20260505215136 | 28 | 207 | 6.4 | 8.0 | 0.00 | 0.00 | 0.00 | 75 | 1005.3 |
| 20260505214634 | 28 | 178 | 6.4 | 29.0 | 0.00 | 0.00 | 0.00 | 75 | 1005.6 |
| 20260505214130 | 29 | 82 | 0.0 | 6.4 | 0.00 | 0.00 | 0.00 | 75 | 1005.6 |
| 20260505213628 | 28 | 158 | 9.7 | 11.3 | 0.00 | 0.00 | 0.00 | 74 | 1005.5 |
| 20260505213124 | 28 | 202 | 6.4 | 12.9 | 0.00 | 0.00 | 0.00 | 74 | 1005.7 |
| 20260505212620 | 28 | 178 | 6.4 | 16.1 | 0.00 | 0.00 | 0.00 | 75 | 1005.6 |
| 20260505212119 | 29 | 126 | 1.6 | 12.9 | 0.00 | 0.00 | 0.00 | 71 | 1005.7 |
| 20260505211615 | 30 | 149 | 6.4 | 14.5 | 0.00 | 0.00 | 0.00 | 72 | 1005.7 |
| 20260505211112 | 29 | 149 | 4.8 | 14.5 | 0.00 | 0.00 | 0.00 | 72 | 1005.7 |
| 20260505210609 | 29 | 204 | 6.4 | 14.5 | 0.00 | 0.00 | 0.00 | 72 | 1005.9 |
| 20260505210106 | 29 | 210 | 4.8 | 16.1 | 0.00 | 0.00 | 0.00 | 72 | 1005.9 |
| 20260505205603 | 29 | 167 | 12.9 | 24.1 | 0.00 | 0.00 | 0.00 | 71 | 1005.9 |
| 20260505205101 | 28 | 155 | 6.4 | 16.1 | 0.00 | 0.00 | 0.00 | 73 | 1006.0 |
| 20260505204558 | 29 | 142 | 6.4 | 17.7 | 0.00 | 0.00 | 0.00 | 72 | 1006.1 |
| 20260505204055 | 29 | 183 | 12.9 | 20.9 | 0.00 | 0.00 | 0.00 | 72 | 1006.2 |
| 20260505203551 | 29 | 175 | 12.9 | 17.7 | 0.00 | 0.00 | 0.00 | 71 | 1006.3 |
| 20260505203049 | 29 | 212 | 9.7 | 14.5 | 0.00 | 0.00 | 0.00 | 72 | 1006.3 |
| 20260505202545 | 29 | 146 | 3.2 | 16.1 | 0.00 | 0.00 | 0.00 | 72 | 1006.3 |
| 20260505202041 | 29 | 136 | 6.4 | 19.3 | 0.00 | 0.00 | 0.00 | 72 | 1006.4 |
| 20260505201538 | 30 | 205 | 6.4 | 17.7 | 0.00 | 0.00 | 0.00 | 71 | 1006.4 |
| 20260505201036 | 29 | 217 | 11.3 | 20.9 | 0.00 | 0.00 | 0.00 | 72 | 1006.7 |
| 20260505200533 | 28 | 177 | 6.4 | 12.9 | 0.00 | 0.00 | 0.00 | 73 | 1006.8 |
| 20260505200030 | 28 | 130 | 8.0 | 16.1 | 0.00 | 0.00 | 0.00 | 73 | 1006.9 |
| 20260505195526 | 28 | 158 | 6.4 | 11.3 | 0.00 | 0.00 | 0.00 | 74 | 1006.9 |
| 20260505195024 | 28 | 177 | 6.4 | 17.7 | 0.00 | 0.00 | 0.00 | 74 | 1006.7 |
| 20260505194515 | 28 | 149 | 9.7 | 17.7 | 0.00 | 0.00 | 0.00 | 73 | 1007.0 |
| 20260505194010 | 28 | 140 | 3.2 | 19.3 | 0.00 | 0.00 | 0.00 | 75 | 1007.0 |
| 20260505193508 | 28 | 209 | 9.7 | 17.7 | 0.00 | 0.00 | 0.00 | 75 | 1007.2 |
| 20260505193005 | 28 | 224 | 9.7 | 19.3 | 0.00 | 0.00 | 0.00 | 75 | 1007.0 |
| 20260505192504 | 28 | 213 | 4.8 | 16.1 | 0.00 | 0.00 | 0.00 | 74 | 1007.1 |
| 20260505192001 | 28 | 203 | 12.9 | 14.5 | 0.00 | 0.00 | 0.00 | 74 | 1007.1 |
| 20260505191459 | 28 | 162 | 9.7 | 16.1 | 0.00 | 0.00 | 0.00 | 73 | 1007.2 |
| 20260505190956 | 29 | 204 | 8.0 | 24.1 | 0.00 | 0.00 | 0.00 | 72 | 1007.1 |
| 20260505190451 | 29 | 195 | 6.4 | 14.5 | 0.00 | 0.00 | 0.00 | 73 | 1007.0 |
| 20260505185947 | 28 | 198 | 6.4 | 11.3 | 0.00 | 0.00 | 0.00 | 74 | 1007.2 |
| 20260505185444 | 28 | 159 | 12.9 | 19.3 | 0.00 | 0.00 | 0.00 | 74 | 1007.1 |
| 20260505184940 | 28 | 187 | 4.8 | 14.5 | 0.00 | 0.00 | 0.00 | 74 | 1007.4 |
| 20260505184437 | 28 | 220 | 3.2 | 14.5 | 0.00 | 0.00 | 0.00 | 75 | 1007.3 |
| 20260505183934 | 28 | 214 | 9.7 | 22.5 | 0.00 | 0.00 | 0.00 | 76 | 1007.4 |
| 20260505183431 | 27 | 172 | 6.4 | 9.7 | 0.00 | 0.00 | 0.00 | 77 | 1007.4 |
| 20260505182928 | 27 | 204 | 3.2 | 9.7 | 0.00 | 0.00 | 0.00 | 78 | 1007.4 |
| 20260505182425 | 27 | 166 | 4.8 | 11.3 | 0.00 | 0.00 | 0.00 | 79 | 1007.4 |
| 20260505181921 | 27 | 197 | 9.7 | 9.7 | 0.00 | 0.00 | 0.00 | 78 | 1007.3 |
| 20260505181419 | 27 | 216 | 3.2 | 11.3 | 0.00 | 0.00 | 0.00 | 78 | 1007.7 |
| 20260505180915 | 27 | 155 | 8.0 | 14.5 | 0.00 | 0.00 | 0.00 | 77 | 1007.4 |
| 20260505180411 | 27 | 198 | 3.2 | 12.9 | 0.00 | 0.00 | 0.00 | 78 | 1007.6 |
| 20260505175908 | 27 | 151 | 3.2 | 14.5 | 0.00 | 0.00 | 0.00 | 80 | 1007.5 |
| 20260505175405 | 26 | 180 | 4.8 | 16.1 | 0.00 | 0.00 | 0.00 | 80 | 1007.5 |
| 20260505174901 | 27 | 215 | 3.2 | 9.7 | 0.00 | 0.00 | 0.00 | 80 | 1007.7 |
| 20260505174359 | 27 | 239 | 3.2 | 11.3 | 0.00 | 0.00 | 0.00 | 79 | 1007.9 |
| 20260505173854 | 27 | 240 | 8.0 | 9.7 | 0.00 | 0.00 | 0.00 | 79 | 1007.9 |
| 20260505173351 | 27 | 193 | 3.2 | 12.9 | 0.00 | 0.00 | 0.00 | 79 | 1007.8 |
| 20260505172848 | 27 | 289 | 3.2 | 12.9 | 0.00 | 0.00 | 0.00 | 79 | 1007.9 |
| 20260505172346 | 27 | 236 | 6.4 | 11.3 | 0.00 | 0.00 | 0.00 | 80 | 1008.1 |
| 20260505171845 | 26 | 202 | 6.4 | 11.3 | 0.00 | 0.00 | 0.00 | 81 | 1007.9 |
| 20260505171342 | 26 | 162 | 4.8 | 14.5 | 0.00 | 0.00 | 0.00 | 82 | 1008.0 |
| 20260505170839 | 26 | 184 | 6.4 | 11.3 | 0.00 | 0.00 | 0.00 | 81 | 1008.2 |
| 20260505170336 | 26 | 235 | 1.6 | 14.5 | 0.00 | 0.00 | 0.00 | 81 | 1008.1 |
| 20260505165831 | 26 | 185 | 6.4 | 19.3 | 0.00 | 0.00 | 0.00 | 82 | 1007.8 |
| 20260505165327 | 26 | 261 | 4.8 | 9.7 | 0.00 | 0.00 | 0.00 | 83 | 1008.1 |
| 20260505164823 | 26 | 158 | 6.4 | 8.0 | 0.00 | 0.00 | 0.00 | 85 | 1008.1 |
| 20260505164320 | 25 | 256 | 6.4 | 8.0 | 0.00 | 0.00 | 0.00 | 86 | 1008.2 |
| 20260505163818 | 25 | 164 | 3.2 | 9.7 | 0.00 | 0.00 | 0.00 | 86 | 1008.0 |
| 20260505163316 | 26 | 198 | 11.3 | 17.7 | 0.00 | 0.00 | 0.00 | 84 | 1008.0 |
| 20260505162814 | 26 | 221 | 6.4 | 17.7 | 0.00 | 0.00 | 0.00 | 83 | 1008.0 |
| 20260505162310 | 26 | 189 | 3.2 | 14.5 | 0.00 | 0.00 | 0.00 | 83 | 1008.0 |
| 20260505161808 | 26 | 198 | 8.0 | 12.9 | 0.00 | 0.00 | 0.00 | 82 | 1008.0 |
| 20260505161305 | 26 | 214 | 4.8 | 16.1 | 0.00 | 0.00 | 0.00 | 83 | 1008.1 |
| 20260505160802 | 26 | 192 | 3.2 | 14.5 | 0.00 | 0.00 | 0.00 | 83 | 1008.0 |
| 20260505160300 | 26 | 173 | 8.0 | 9.7 | 0.00 | 0.00 | 0.00 | 83 | 1008.0 |
| 20260505153238 | 25 | 137 | 3.2 | 8.0 | 0.00 | 0.00 | 0.00 | 85 | 1007.9 |
| 20260505152735 | 25 | 177 | 6.4 | 9.7 | 0.00 | 0.00 | 0.00 | 87 | 1007.8 |
| 20260505152231 | 25 | 154 | 6.4 | 12.9 | 0.00 | 0.00 | 0.00 | 87 | 1007.7 |
| 20260505151726 | 25 | 190 | 8.0 | 14.5 | 0.00 | 0.00 | 0.00 | 88 | 1007.7 |
| 20260505151224 | 25 | 200 | 6.4 | 8.0 | 0.00 | 0.00 | 0.00 | 88 | 1007.8 |
| 20260505150720 | 24 | 179 | 4.8 | 8.0 | 0.00 | 0.00 | 0.00 | 87 | 1007.8 |
| 20260505150218 | 24 | 201 | 3.2 | 8.0 | 0.00 | 0.00 | 0.00 | 88 | 1007.7 |
| 20260505140645 | 25 | 179 | 4.8 | 14.5 | 0.00 | 0.00 | 0.00 | 88 | 1007.4 |
| 20260505140143 | 24 | 177 | 4.8 | 16.1 | 0.00 | 0.00 | 0.00 | 88 | 1007.3 |
| 20260505130106 | 22 | 188 | 9.7 | 9.7 | 0.00 | 0.00 | 0.00 | 93 | 1007.4 |
| 20260505124556 | 22 | 171 | 4.8 | 8.0 | 0.00 | 0.00 | 0.00 | 94 | 1007.3 |
| 20260505124052 | 22 | 174 | 3.2 | 8.0 | 0.00 | 0.00 | 0.00 | 94 | 1007.2 |
| 20260505123548 | 22 | 225 | 4.8 | 6.4 | 0.00 | 0.00 | 0.00 | 94 | 1007.3 |
| 20260505123045 | 22 | 300 | 0.0 | 6.4 | 0.00 | 0.00 | 0.00 | 94 | 1007.3 |
| 20260505122542 | 22 | 201 | 3.2 | 6.4 | 0.00 | 0.00 | 0.00 | 95 | 1007.2 |
| 20260505122038 | 22 | 195 | 3.2 | 4.8 | 0.00 | 0.00 | 0.00 | 95 | 1006.9 |
| 20260505121535 | 21 | 163 | 3.2 | 6.4 | 0.00 | 0.00 | 0.00 | 95 | 1007.2 |
| 20260505121032 | 21 | 209 | 3.2 | 4.8 | 0.00 | 0.00 | 0.00 | 96 | 1007.2 |
| 20260505120528 | 21 | 144 | 1.6 | 4.8 | 0.00 | 0.00 | 0.00 | 96 | 1007.1 |
| 20260505120023 | 21 | 268 | 1.6 | 3.2 | 0.00 | 0.00 | 0.00 | 96 | 1006.9 |
| 20260505115518 | 21 | 196 | 6.4 | 8.0 | 0.00 | 0.00 | 0.00 | 96 | 1006.9 |
| 20260505115016 | 21 | 170 | 3.2 | 8.0 | 0.00 | 0.00 | 0.00 | 96 | 1006.8 |
| 20260505114513 | 21 | 158 | 3.2 | 6.4 | 0.00 | 0.00 | 0.00 | 96 | 1006.7 |
| 20260505114009 | 21 | 299 | 1.6 | 4.8 | 0.00 | 0.00 | 0.00 | 95 | 1006.7 |
| 20260505113507 | 21 | 164 | 0.0 | 4.8 | 0.00 | 0.00 | 0.00 | 95 | 1006.9 |
| 20260505113003 | 21 | 203 | 6.4 | 8.0 | 0.00 | 0.00 | 0.00 | 96 | 1007.2 |
| 20260505112459 | 21 | 193 | 6.4 | 6.4 | 0.00 | 0.00 | 0.00 | 95 | 1007.2 |
| 20260505111956 | 21 | 195 | 3.2 | 6.4 | 0.00 | 0.00 | 0.00 | 96 | 1007.0 |
| 20260505111456 | 21 | 183 | 4.8 | 6.4 | 0.00 | 0.00 | 0.00 | 96 | 1006.9 |
| 20260505110952 | 21 | 211 | 3.2 | 4.8 | 0.00 | 0.00 | 0.00 | 96 | 1006.9 |
| 20260505110449 | 21 | 187 | 4.8 | 4.8 | 0.00 | 0.00 | 0.00 | 96 | 1006.8 |
| 20260505101915 | 21 | 196 | 3.2 | 6.4 | 0.00 | 0.00 | 0.00 | 94 | 1007.2 |
| 20260505101414 | 21 | 205 | 3.2 | 6.4 | 0.00 | 0.00 | 0.00 | 94 | 1007.0 |
| 20260505100911 | 21 | 163 | 3.2 | 8.0 | 0.00 | 0.00 | 0.00 | 94 | 1006.7 |
| 20260505100408 | 21 | 154 | 1.6 | 6.4 | 0.00 | 0.00 | 0.00 | 94 | 1007.0 |
| 20260505095903 | 21 | 196 | 3.2 | 8.0 | 0.00 | 0.00 | 0.00 | 94 | 1006.9 |
| 20260505095400 | 21 | 199 | 4.8 | 6.4 | 0.00 | 0.00 | 0.00 | 93 | 1007.4 |
| 20260505094857 | 21 | 193 | 1.6 | 8.0 | 0.00 | 0.00 | 0.00 | 93 | 1007.1 |
| 20260505094355 | 21 | 287 | 0.0 | 4.8 | 0.00 | 0.00 | 0.00 | 93 | 1007.2 |
| 20260505093850 | 21 | 180 | 4.8 | 6.4 | 0.00 | 0.00 | 0.00 | 93 | 1006.9 |
| 20260505093347 | 21 | 180 | 4.8 | 6.4 | 0.00 | 0.00 | 0.00 | 93 | 1007.1 |
| 20260505092845 | 21 | 199 | 4.8 | 8.0 | 0.00 | 0.00 | 0.00 | 93 | 1006.9 |
| 20260505092342 | 21 | 190 | 4.8 | 8.0 | 0.00 | 0.00 | 0.00 | 93 | 1007.0 |
| 20260505091839 | 21 | 206 | 3.2 | 4.8 | 0.00 | 0.00 | 0.00 | 93 | 1007.2 |
| 20260505091337 | 21 | 217 | 4.8 | 8.0 | 0.00 | 0.00 | 0.00 | 93 | 1007.2 |
| 20260505090834 | 21 | 168 | 0.0 | 6.4 | 0.00 | 0.00 | 0.00 | 93 | 1007.3 |
| 20260505090333 | 21 | 237 | 0.0 | 9.7 | 0.00 | 0.00 | 0.00 | 93 | 1007.4 |
| 20260505085830 | 21 | 245 | 0.0 | 4.8 | 0.00 | 0.00 | 0.00 | 93 | 1007.4 |
| 20260505085328 | 21 | 188 | 3.2 | 6.4 | 0.00 | 0.00 | 0.00 | 93 | 1007.3 |
| 20260505084825 | 21 | 186 | 3.2 | 4.8 | 0.00 | 0.00 | 0.00 | 93 | 1007.4 |
| 20260505084324 | 21 | 216 | 0.0 | 4.8 | 0.00 | 0.00 | 0.00 | 93 | 1007.3 |
| 20260505083820 | 21 | 178 | 4.8 | 8.0 | 0.00 | 0.00 | 0.00 | 93 | 1007.5 |
| 20260505083318 | 21 | 210 | 3.2 | 6.4 | 0.00 | 0.00 | 0.00 | 93 | 1007.5 |
| 20260505082814 | 21 | 186 | 3.2 | 4.8 | 0.00 | 0.00 | 0.00 | 93 | 1007.6 |
| 20260505082311 | 21 | 238 | 1.6 | 6.4 | 0.00 | 0.00 | 0.00 | 93 | 1007.6 |
| 20260505081807 | 21 | 192 | 4.8 | 6.4 | 0.00 | 0.00 | 0.00 | 92 | 1007.7 |
| 20260505081304 | 21 | 190 | 3.2 | 6.4 | 0.00 | 0.00 | 0.00 | 92 | 1007.7 |
| 20260505080800 | 21 | 225 | 1.6 | 8.0 | 0.00 | 0.00 | 0.00 | 92 | 1007.6 |
| 20260505080256 | 21 | 173 | 3.2 | 6.4 | 0.00 | 0.00 | 0.00 | 92 | 1007.6 |
| 20260505075752 | 21 | 180 | 1.6 | 6.4 | 0.00 | 0.00 | 0.00 | 91 | 1007.8 |
| 20260505075249 | 21 | 187 | 3.2 | 6.4 | 0.00 | 0.00 | 0.00 | 91 | 1007.9 |
| 20260505074747 | 21 | 126 | 0.0 | 4.8 | 0.00 | 0.00 | 0.00 | 91 | 1007.8 |
| 20260505074243 | 21 | 196 | 3.2 | 6.4 | 0.00 | 0.00 | 0.00 | 91 | 1007.9 |
| 20260505073741 | 21 | 157 | 6.4 | 11.3 | 0.00 | 0.00 | 0.00 | 90 | 1007.8 |
| 20260505073238 | 21 | 172 | 1.6 | 8.0 | 0.00 | 0.00 | 0.00 | 90 | 1007.9 |
| 20260505072735 | 21 | 175 | 4.8 | 8.0 | 0.00 | 0.00 | 0.00 | 90 | 1007.9 |
| 20260505072231 | 21 | 197 | 4.8 | 9.7 | 0.00 | 0.00 | 0.00 | 90 | 1008.0 |
| 20260505071727 | 21 | 179 | 6.4 | 8.0 | 0.00 | 0.00 | 0.00 | 90 | 1008.0 |
| 20260505071224 | 21 | 179 | 3.2 | 8.0 | 0.00 | 0.00 | 0.00 | 90 | 1007.9 |
| 20260505070722 | 21 | 193 | 3.2 | 8.0 | 0.00 | 0.00 | 0.00 | 90 | 1008.1 |
| 20260505070218 | 21 | 162 | 4.8 | 9.7 | 0.00 | 0.00 | 0.00 | 89 | 1008.1 |
| 20260505065714 | 21 | 188 | 1.6 | 11.3 | 0.00 | 0.00 | 0.00 | 89 | 1008.0 |
| 20260505065211 | 21 | 171 | 4.8 | 8.0 | 0.00 | 0.00 | 0.00 | 89 | 1008.1 |
| 20260505064708 | 21 | 187 | 6.4 | 11.3 | 0.00 | 0.00 | 0.00 | 89 | 1008.2 |
| 20260505064206 | 21 | 173 | 4.8 | 9.7 | 0.00 | 0.00 | 0.00 | 89 | 1008.4 |
| 20260505063703 | 21 | 182 | 4.8 | 6.4 | 0.00 | 0.00 | 0.00 | 89 | 1008.5 |
| 20260505063159 | 21 | 198 | 6.4 | 6.4 | 0.00 | 0.00 | 0.00 | 88 | 1008.3 |
| 20260505062655 | 21 | 150 | 6.4 | 8.0 | 0.00 | 0.00 | 0.00 | 88 | 1008.3 |
| 20260505062153 | 21 | 174 | 3.2 | 8.0 | 0.00 | 0.00 | 0.00 | 88 | 1008.4 |
| 20260505061650 | 21 | 180 | 3.2 | 9.7 | 0.00 | 0.00 | 0.00 | 88 | 1008.5 |
| 20260505061148 | 21 | 149 | 0.0 | 6.4 | 0.00 | 0.00 | 0.00 | 88 | 1008.6 |
| 20260505060645 | 21 | 115 | 0.0 | 9.7 | 0.00 | 0.00 | 0.00 | 88 | 1008.9 |
| 20260505060142 | 21 | 193 | 6.4 | 6.4 | 0.00 | 0.00 | 0.00 | 88 | 1008.8 |
| 20260505055637 | 21 | 182 | 4.8 | 9.7 | 0.00 | 0.00 | 0.00 | 87 | 1008.7 |
| 20260505055134 | 21 | 144 | 6.4 | 8.0 | 0.00 | 0.00 | 0.00 | 87 | 1008.7 |
| 20260505054631 | 21 | 206 | 3.2 | 6.4 | 0.00 | 0.00 | 0.00 | 87 | 1008.6 |
| 20260505054129 | 21 | 186 | 4.8 | 6.4 | 0.00 | 0.00 | 0.00 | 87 | 1008.8 |
| 20260505053626 | 21 | 48 | 0.0 | 4.8 | 0.00 | 0.00 | 0.00 | 87 | 1008.6 |
| 20260505053122 | 21 | 201 | 0.0 | 6.4 | 0.00 | 0.00 | 0.00 | 86 | 1009.0 |
| 20260505052620 | 21 | 217 | 1.6 | 8.0 | 0.00 | 0.00 | 0.00 | 86 | 1008.7 |
| 20260505052117 | 21 | 190 | 1.6 | 8.0 | 0.00 | 0.00 | 0.00 | 86 | 1009.2 |
| 20260505051614 | 21 | 299 | 0.0 | 3.2 | 0.00 | 0.00 | 0.00 | 86 | 1009.0 |
| 20260505051112 | 21 | 168 | 8.0 | 8.0 | 0.00 | 0.00 | 0.00 | 86 | 1009.1 |
| 20260505050610 | 21 | 149 | 6.4 | 9.7 | 0.00 | 0.00 | 0.00 | 85 | 1009.1 |
| 20260505050108 | 21 | 177 | 6.4 | 9.7 | 0.00 | 0.00 | 0.00 | 85 | 1009.3 |
| 20260505041537 | 22 | 187 | 11.3 | 17.7 | 0.00 | 0.00 | 0.00 | 83 | 1009.2 |
| 20260505041035 | 22 | 162 | 9.7 | 14.5 | 0.00 | 0.00 | 0.00 | 83 | 1009.2 |
| 20260505040532 | 22 | 173 | 9.7 | 14.5 | 0.00 | 0.00 | 0.00 | 83 | 1009.0 |
| 20260505040029 | 22 | 160 | 9.7 | 11.3 | 0.00 | 0.00 | 0.00 | 82 | 1009.3 |
| 20260505035525 | 22 | 179 | 3.2 | 11.3 | 0.00 | 0.00 | 0.00 | 82 | 1009.4 |
| 20260505035022 | 22 | 23 | 0.0 | 8.0 | 0.00 | 0.00 | 0.00 | 82 | 1009.4 |
| 20260505034518 | 22 | 169 | 12.9 | 14.5 | 0.00 | 0.00 | 0.00 | 82 | 1009.3 |
| 20260505034016 | 22 | 163 | 4.8 | 9.7 | 0.00 | 0.00 | 0.00 | 81 | 1009.4 |
| 20260505033513 | 22 | 185 | 1.6 | 8.0 | 0.00 | 0.00 | 0.00 | 81 | 1009.4 |
| 20260505033011 | 22 | 210 | 3.2 | 9.7 | 0.00 | 0.00 | 0.00 | 81 | 1009.5 |
| 20260505032508 | 22 | 184 | 6.4 | 14.5 | 0.00 | 0.00 | 0.00 | 80 | 1009.6 |
| 20260505032004 | 22 | 173 | 4.8 | 14.5 | 0.00 | 0.00 | 0.00 | 80 | 1009.6 |
| 20260505031501 | 22 | 164 | 8.0 | 9.7 | 0.00 | 0.00 | 0.00 | 80 | 1009.6 |
| 20260505030958 | 22 | 171 | 9.7 | 14.5 | 0.00 | 0.00 | 0.00 | 80 | 1009.4 |
| 20260505030454 | 22 | 178 | 6.4 | 14.5 | 0.00 | 0.00 | 0.00 | 79 | 1009.3 |
| 20260505025949 | 22 | 155 | 3.2 | 11.3 | 0.00 | 0.00 | 0.00 | 79 | 1009.4 |
| 20260505025447 | 22 | 162 | 3.2 | 12.9 | 0.00 | 0.00 | 0.00 | 79 | 1009.4 |
| 20260505024946 | 23 | 164 | 8.0 | 11.3 | 0.00 | 0.00 | 0.00 | 78 | 1009.5 |
| 20260505024442 | 23 | 164 | 4.8 | 14.5 | 0.00 | 0.00 | 0.00 | 78 | 1009.5 |
| 20260505023940 | 23 | 173 | 4.8 | 8.0 | 0.00 | 0.00 | 0.00 | 78 | 1009.7 |
| 20260505023437 | 23 | 350 | 3.2 | 8.0 | 0.00 | 0.00 | 0.00 | 78 | 1009.3 |
| 20260505022934 | 23 | 153 | 4.8 | 8.0 | 0.00 | 0.00 | 0.00 | 78 | 1009.2 |
| 20260505022432 | 23 | 169 | 8.0 | 12.9 | 0.00 | 0.00 | 0.00 | 77 | 1009.4 |
| 20260505021928 | 23 | 168 | 4.8 | 14.5 | 0.00 | 0.00 | 0.00 | 77 | 1009.4 |
| 20260505021425 | 23 | 159 | 8.0 | 9.7 | 0.00 | 0.00 | 0.00 | 77 | 1009.3 |
| 20260505020920 | 23 | 175 | 3.2 | 16.1 | 0.00 | 0.00 | 0.00 | 76 | 1009.2 |
| 20260505020416 | 23 | 169 | 6.4 | 12.9 | 0.00 | 0.00 | 0.00 | 76 | 1009.3 |
| 20260505015913 | 23 | 161 | 6.4 | 14.5 | 0.00 | 0.00 | 0.00 | 76 | 1008.9 |
| 20260505015411 | 23 | 182 | 8.0 | 16.1 | 0.00 | 0.00 | 0.00 | 76 | 1009.1 |
| 20260505014908 | 23 | 173 | 8.0 | 17.7 | 0.00 | 0.00 | 0.00 | 75 | 1009.2 |
| 20260505014404 | 23 | 153 | 4.8 | 12.9 | 0.00 | 0.00 | 0.00 | 75 | 1009.0 |
| 20260505013901 | 23 | 159 | 4.8 | 11.3 | 0.00 | 0.00 | 0.00 | 75 | 1009.0 |
| 20260505013358 | 23 | 177 | 3.2 | 9.7 | 0.00 | 0.00 | 0.00 | 75 | 1008.9 |
| 20260505012856 | 23 | 175 | 8.0 | 14.5 | 0.00 | 0.00 | 0.00 | 75 | 1008.8 |
| 20260505012354 | 23 | 170 | 3.2 | 16.1 | 0.00 | 0.00 | 0.00 | 74 | 1009.0 |
| 20260505011850 | 23 | 193 | 4.8 | 16.1 | 0.00 | 0.00 | 0.00 | 74 | 1008.8 |
| 20260505011347 | 23 | 177 | 6.4 | 11.3 | 0.00 | 0.00 | 0.00 | 74 | 1008.6 |
| 20260505010843 | 23 | 182 | 3.2 | 12.9 | 0.00 | 0.00 | 0.00 | 74 | 1008.9 |
| 20260505010339 | 24 | 155 | 12.9 | 14.5 | 0.00 | 0.00 | 0.00 | 73 | 1008.8 |
| 20260505005835 | 24 | 147 | 3.2 | 9.7 | 0.00 | 0.00 | 0.00 | 73 | 1008.9 |
| 20260505005332 | 24 | 201 | 0.0 | 6.4 | 0.00 | 0.00 | 0.00 | 73 | 1008.6 |
| 20260505004830 | 24 | 140 | 4.8 | 11.3 | 0.00 | 0.00 | 0.00 | 73 | 1008.7 |
| 20260505004326 | 24 | 169 | 8.0 | 11.3 | 0.00 | 0.00 | 0.00 | 72 | 1008.8 |
| 20260505003823 | 24 | 151 | 6.4 | 16.1 | 0.00 | 0.00 | 0.00 | 72 | 1008.7 |
| 20260505003321 | 25 | 150 | 3.2 | 9.7 | 0.00 | 0.00 | 0.00 | 72 | 1008.6 |
| 20260505002816 | 25 | 160 | 0.0 | 8.0 | 0.00 | 0.00 | 0.00 | 72 | 1008.6 |
| 20260505002314 | 25 | 157 | 9.7 | 14.5 | 0.00 | 0.00 | 0.00 | 72 | 1008.5 |
| 20260505001812 | 25 | 158 | 9.7 | 12.9 | 0.00 | 0.00 | 0.00 | 71 | 1008.9 |
| 20260505001309 | 25 | 139 | 4.8 | 12.9 | 0.00 | 0.00 | 0.00 | 70 | 1008.9 |
| 20260505000806 | 25 | 171 | 8.0 | 9.7 | 0.00 | 0.00 | 0.00 | 70 | 1008.7 |
| 20260505000304 | 25 | 179 | 6.4 | 9.7 | 0.00 | 0.00 | 0.00 | 70 | 1008.8 |
| 20260504235800 | 25 | 179 | 8.0 | 11.3 | 0.00 | 0.00 | 0.00 | 71 | 1008.7 |
| 20260504235256 | 25 | 116 | 9.7 | 14.5 | 0.00 | 0.00 | 0.00 | 70 | 1008.5 |
| 20260504234754 | 25 | 185 | 8.0 | 12.9 | 0.00 | 0.00 | 0.00 | 70 | 1008.8 |
| 20260504234251 | 25 | 241 | 1.6 | 12.9 | 0.00 | 0.00 | 0.00 | 69 | 1009.0 |
| 20260504233747 | 25 | 170 | 4.8 | 17.7 | 0.00 | 0.00 | 0.00 | 69 | 1009.0 |
| 20260504233243 | 25 | 150 | 4.8 | 8.0 | 0.00 | 0.00 | 0.00 | 69 | 1009.1 |
| 20260504232740 | 25 | 138 | 4.8 | 17.7 | 0.00 | 0.00 | 0.00 | 69 | 1009.0 |
| 20260504232237 | 25 | 158 | 14.5 | 20.9 | 0.00 | 0.00 | 0.00 | 68 | 1009.2 |
| 20260504231734 | 25 | 181 | 6.4 | 14.5 | 0.00 | 0.00 | 0.00 | 68 | 1009.1 |
| 20260504231230 | 25 | 158 | 11.3 | 14.5 | 0.00 | 0.00 | 0.00 | 68 | 1009.2 |
| 20260504230726 | 26 | 181 | 3.2 | 12.9 | 0.00 | 0.00 | 0.00 | 67 | 1008.9 |
| 20260504230225 | 26 | 185 | 3.2 | 17.7 | 0.00 | 0.00 | 0.00 | 67 | 1009.2 |
| 20260504225724 | 26 | 177 | 6.4 | 9.7 | 0.00 | 0.00 | 0.00 | 67 | 1009.2 |
| 20260504225219 | 26 | 187 | 3.2 | 9.7 | 0.00 | 0.00 | 0.00 | 67 | 1009.2 |
| 20260504224717 | 26 | 144 | 9.7 | 20.9 | 0.00 | 0.00 | 0.00 | 67 | 1009.4 |
| 20260504224214 | 26 | 135 | 4.8 | 14.5 | 0.00 | 0.00 | 0.00 | 65 | 1009.4 |
| 20260504223710 | 26 | 187 | 4.8 | 12.9 | 0.00 | 0.00 | 0.00 | 65 | 1009.5 |
| 20260504223206 | 26 | 144 | 3.2 | 14.5 | 0.00 | 0.00 | 0.00 | 64 | 1009.5 |